Lubbock, TX

10:09 AM CST on December 06, 2019 (GMT -0600)
Lubbock International

Weather History for KLBB - August, 2019

Change the Weather History Date:

Tuesday, August 20, 2019

  Actual Average Record
Temperature  
Mean Temperature 88 °F 79 °F  
Max Temperature 99 °F 91 °F 103 °F (1930)
Min Temperature 77 °F 66 °F 54 °F (1915)
Degree Days  
Heating Degree Days 0 0  
Month to date heating degree days 0 0  
Since 1 June heating degree days 0 2  
Since 1 July heating degree days 0 0  
Cooling Degree Days 23 14  
Month to date cooling degree days 427 293  
Year to date cooling degree days 1534 1386  
Since 1 June cooling degree days 1324 1140  
Growing Degree Days 38 (Base 50)    
Moisture  
Dew Point 58 °F    
Average Humidity 39    
Maximum Humidity 54    
Minimum Humidity 24    
Precipitation  
Precipitation 0.00 in 0.06 in 1.57 in (1919)
Month to date precipitation 0.13 1.20  
Year to date precipitation 13.58 12.36  
Snow  
Snow 0.00 in 0.00 in - ()
Month to date snowfall 0.0 0.0  
Since 1 June snowfall 0.0 0.0  
Since 1 July snowfall 0.0 0.0  
Snow Depth 0.00 in    
Sea Level Pressure  
Sea Level Pressure 29.91 in    
Wind  
Wind Speed 9 mph ()    
Max Wind Speed 21 mph    
Max Gust Speed 25 mph    
Visibility 10.0 miles    
Events      
T = Trace of Precipitation, MM = Missing Value Source: Averaged Metar Reports

Daily Weather History Graph

Daily Weather History Graph

Search for Another Location

Airport or City:

Astronomy

Aug. 20, 2019 Rise Set
Actual Time 7:12 AM CDT 8:28 PM CDT
Civil Twilight 6:46 AM CDT 8:54 PM CDT
Nautical Twilight 6:15 AM CDT 9:24 PM CDT
Astronomical Twilight 5:43 AM CDT 9:57 PM CDT
Moon 11:31 PM CDT (8/20) 11:40 AM CDT (8/20)
Length of Visible Light 14h 07m
Length of Day
13h 15m
Waning Gibbous, 77% of the Moon is Illuminated
Aug 20
Waning Gibbous
Aug 23
Last Quarter
Aug 30
New
Sep 5
First Quarter
Sep 13
Full

Hourly Weather History & Observations

Time (CDT) Temp. Heat Index Dew Point Humidity Pressure Visibility Wind Dir Wind Speed Gust Speed Precip Events Conditions
12:53 AM 82.0 °F 82.0 °F 57.9 °F 44% 29.89 in 10.0 mi SSE 9.2 mph - N/A   Scattered Clouds
1:53 AM 81.0 °F 81.3 °F 59.0 °F 47% 29.89 in 10.0 mi SSE 10.4 mph - N/A   Scattered Clouds
2:53 AM 80.1 °F 80.7 °F 59.0 °F 48% 29.89 in 10.0 mi South 11.5 mph - N/A   Scattered Clouds
3:53 AM 78.1 °F - 59.0 °F 52% 29.89 in 10.0 mi SSE 9.2 mph - N/A   Scattered Clouds
4:53 AM 78.1 °F - 59.0 °F 52% 29.89 in 10.0 mi South 10.4 mph - N/A   Scattered Clouds
5:53 AM 80.1 °F 80.6 °F 57.9 °F 47% 29.90 in 10.0 mi SSW 11.5 mph - N/A   Mostly Cloudy
6:53 AM 78.1 °F - 59.0 °F 52% 29.92 in 10.0 mi SSW 8.1 mph - N/A   Scattered Clouds
7:53 AM 77.0 °F - 59.0 °F 54% 29.95 in 10.0 mi SW 6.9 mph - N/A   Partly Cloudy
8:53 AM 80.1 °F 80.9 °F 60.1 °F 50% 29.96 in 10.0 mi SSW 9.2 mph - N/A   Partly Cloudy
9:53 AM 84.0 °F 84.5 °F 62.1 °F 47% 29.96 in 10.0 mi SW 13.8 mph 23.0 mph N/A   Partly Cloudy
10:53 AM 88.0 °F 88.4 °F 62.1 °F 42% 29.96 in 10.0 mi SSW 15.0 mph - N/A   Partly Cloudy
11:53 AM 91.9 °F 91.8 °F 61.0 °F 35% 29.95 in 10.0 mi SSW 9.2 mph 18.4 mph N/A   Partly Cloudy
12:53 PM 91.9 °F 91.5 °F 60.1 °F 34% 29.95 in 10.0 mi Variable 4.6 mph - N/A   Partly Cloudy
1:53 PM 95.0 °F 94.4 °F 59.0 °F 30% 29.94 in 10.0 mi SE 9.2 mph 19.6 mph N/A   Partly Cloudy
2:53 PM 96.1 °F 94.8 °F 57.0 °F 27% 29.92 in 10.0 mi South 10.4 mph 17.3 mph N/A   Partly Cloudy
3:53 PM 97.0 °F 95.3 °F 55.9 °F 25% 29.90 in 10.0 mi SW 9.2 mph - N/A   Scattered Clouds
4:53 PM 98.1 °F 96.8 °F 57.0 °F 25% 29.87 in 10.0 mi SSE 9.2 mph - N/A   Scattered Clouds
5:53 PM 96.1 °F 93.8 °F 54.0 °F 24% 29.86 in 10.0 mi SE 11.5 mph - N/A   Scattered Clouds
6:53 PM 96.1 °F 93.8 °F 54.0 °F 24% 29.86 in 10.0 mi SE 17.3 mph - N/A   Scattered Clouds
7:53 PM 93.0 °F 90.6 °F 53.1 °F 26% 29.87 in 10.0 mi SSE 10.4 mph - N/A   Mostly Cloudy
8:53 PM 88.0 °F 85.7 °F 53.1 °F 30% 29.89 in 10.0 mi SSE 9.2 mph - N/A   Scattered Clouds
9:53 PM 84.9 °F 83.2 °F 53.1 °F 33% 29.91 in 10.0 mi SSE 9.2 mph - N/A   Partly Cloudy
10:53 PM 82.9 °F 82.0 °F 55.0 °F 38% 29.91 in 10.0 mi SE 10.4 mph - N/A   Partly Cloudy
11:53 PM 81.0 °F 80.8 °F 55.9 °F 42% 29.91 in 10.0 mi SSE 10.4 mph - N/A   Partly Cloudy